星链-37187(STARLINK-37187)

导读

STARLINK-37187(NORAD编号68399)是美国太空探索技术公司(SpaceX)星链(Starlink)项目的低轨互联网卫星,于2024年12月8日发射,截至2026年4月已在轨飞行超480天。该卫星采用Starlink V1.0平台,运行于倾角43.001°的近地轨道,近地点约355公里、远地点约357公里,轨道周期约91.66分钟,属于星链全球卫星互联网星座的组成部分,旨在为全球提供高速低延迟宽带互联网服务,缩小数字鸿沟。目前该卫星状态为在轨运行。

基本信息
目录编号:
68399
目录名称:
STARLINK-37187
国际标识:
2026-063V
轨道中心:
EARTH
卫星名称:
星链-37187
卫星全名:
星链-37187(STARLINK-37187)
卫星状态:
在轨 (已飞行169 天)
发射日期:
2026-03-26 UTC
国别 :
美国 (US)
星等 :
--
该卫星已列入 空间交会检测服务 Space Conjunction Data Service (SCDS) ,当前飞行风险评估等级: 无高风险
轨道信息
数据来源 国际轨道数据
星历时间: 2026-09-10T23:22:27+0800
1天前
查看轨道信息
半长轴: 6843.682km
偏心率: 0.0001961
轨道倾角: 97.286°
近地点辐角 123.145°
升交点赤经 34.733°
平近点角 236.999°
近地点: 464.202km
远地点: 466.888km
周期: 93.906分钟
每日圈数: 15.334444
详细信息
固有亮度:
5
最大亮度:
2.5
卫星平台:
Starlink V1.0
覆盖范围:
全球
运营商:
太空探索技术公司
运营商所在国:
美国
制造商(研发单位):
太空探索技术公司
制造商所在国:
美国
使用方式:
暂无
卫星简介
Starlink 计划是 SpaceX 推出的全球卫星互联网项目,通过发射低轨道卫星,为全球尤其是偏远地区提供高速、低延迟的互联网服务。自 2019 年起,Starlink 已部署数千颗卫星,旨在缩小全球数字鸿沟,推动互联网普及。该项目还为军事、航空等行业提供通信支持,带来广泛经济效益。
2D轨道图
3D轨道图
轨道高度分析图
轨道倾角分析图
轨道综合分析图
查看轨道综合分析图
交会数据列表
事件ID 空间交会对象 最接近时刻(TCA) 交会距离 交会风险概率(CRP) 交会风险指数(CRI) 操作
CDM_260912-173606-410506-839921
2026-09-12T
17:36:49+0000
2.298 km
极远距离
2.050516E-6 低风险 0.41
CDM_260912-042205-481006-839921
2026-09-12T
04:22:20+0000
2.278 km
极远距离
2.03539E-6 低风险 0.41
CDM_260914-014805-299006-839921
2026-09-14T
01:48:52+0000
2.486 km
极远距离
1.404406E-6 低风险 0.38
CDM_260913-013201-815206-839924
2026-09-13T
01:32:37+0000
2.967 km
极远距离
1.381853E-6 低风险 0.38
CDM_260911-163305-417206-839921
2026-09-11T
16:33:13+0000
2.920 km
极远距离
1.373488E-6 低风险 0.38
CDM_260914-010105-299006-839921
2026-09-14T
01:01:56+0000
2.597 km
极远距离
1.305435E-6 低风险 0.37
CDM_260913-184604-869306-839921
2026-09-13T
18:46:25+0000
2.980 km
极远距离
1.253251E-6 低风险 0.37
与全量物体交会距离演化趋势
与全量物体交会风险概率演化趋势